This is the latest recevied weather packets stored in our database for station/object LA5NNA. If no packets are shown the sender has not sent any weather packets the latest 10 day(s).
| Time | Temp. | Humidity | Pressure | Rain* | Wind** | Luminosity | Snow |
|---|---|---|---|---|---|---|---|
| 1777815010 | 11.11° C | 77% | 1008.6 hPa | 0 mm | - | 0 W/m² | - |
| 1777813211 | 11.67° C | 76% | 1008.6 hPa | 0 mm | - | 0 W/m² | - |
| 1777811410 | 11.67° C | 77% | 1008.8 hPa | 0 mm | - | 0 W/m² | - |
| 1777810807 | 11.67° C | 78% | 1008.9 hPa | 0 mm | - | 0 W/m² | - |
| 1777807811 | 11.11° C | 79% | 1008.9 hPa | 0 mm | - | 0 W/m² | - |
| 1777807506 | 11.11° C | 79% | 1009 hPa | 0 mm | - | 0 W/m² | - |
| 1777805706 | 10.56° C | 80% | 1008.9 hPa | 0 mm | - | 0 W/m² | - |
| 1777802411 | 10.56° C | 81% | 1008.7 hPa | 0 mm | - | 0 W/m² | - |
| 1777802106 | 10.56° C | 82% | 1008.8 hPa | 0 mm | - | 0 W/m² | - |
| 1777801807 | 11.11° C | 82% | 1008.7 hPa | 0 mm | - | 0 W/m² | - |
| 1777800306 | 11.11° C | 83% | 1008.8 hPa | 0 mm | - | 2 W/m² | - |
| 1777799407 | 10.56° C | 83% | 1008.7 hPa | 0 mm | - | 0 W/m² | - |
| 1777797307 | 10.56° C | 85% | 1008.8 hPa | 0 mm | - | 2 W/m² | - |
| 1777797010 | 10.56° C | 85% | 1008.8 hPa | 0 mm | - | 0 W/m² | - |
| 1777793412 | 9.44° C | 86% | 1008.8 hPa | 0 mm | - | 2 W/m² | - |
| 1777791909 | 8.89° C | 85% | 1008.8 hPa | 0 mm | - | 2 W/m² | - |
| 1777791308 | 8.89° C | 85% | 1008.9 hPa | 0 mm | - | 2 W/m² | - |
| 1777789812 | 8.33° C | 85% | 1008.7 hPa | 0 mm | - | 0 W/m² | - |
| 1777788309 | 8.33° C | 86% | 1008.7 hPa | 0 mm | - | 0 W/m² | - |
| 1777787108 | 8.33° C | 86% | 1008.6 hPa | 0 mm | - | 0 W/m² | - |
| 1777786509 | 8.33° C | 86% | 1008.5 hPa | 0 mm | - | 0 W/m² | - |
| 1777785308 | 8.33° C | 86% | 1008.4 hPa | 0 mm | - | 0 W/m² | - |
| 1777784413 | 8.33° C | 86% | 1008.4 hPa | 0 mm | - | 0 W/m² | - |
| 1777779012 | 8.33° C | 87% | 1008.6 hPa | 0 mm | - | 0 W/m² | - |
| 1777778708 | 8.33° C | 87% | 1008.5 hPa | 0 mm | - | 0 W/m² | - |
* Rain latest hour (hover to see other rain measurements)
** Current wind speed in m/s (hover to see current wind gust speed)